Location: Unspecified
(35.7250°N, 0.0000°E)
Time: 03:46:50
(UTC+00:00)

Vanguard 2 - Pass Details

Date: 19 June 2019
Orbit: 553 x 2938 km, 32.9° (Epoch: 19 July)

Event Time Altitude Azimuth Distance (km) Brightness Sun altitude
Rises 13:19:42 0° 278° (W) 4,619 11.7 69.1°
Reaches altitude 10° 13:22:21 10° 275° (W) 3,907 11.6 68.6°
Maximum altitude 13:33:08 60° 199° (SSW) 2,537 11.8 66.6°
Drops below altitude 10° 13:49:26 10° 125° (SE) 5,672 11.9 63.6°
Sets 13:54:12 0° 122° (ESE) 6,773 12.2 62.7°
